Theta_e
295 291 290 290 293 293 292 289 286 287 291 291 290 291 294 295 293 293 293 297 308 311 316 317 318 320 321 324 328 329 328 330 329 328 327 327 327 329 330 330 330 330 330 329
290 289 293 293 294 292 291 291 290 292 290 290 288 289 292 292 293 294 294 294 297 306 306 308 314 316 318 321 323 327 328 329 329 330 330 330 330 331 332 332 331 331 330 329
288 290 293 293 290 289 286 288 285 289 288 288 288 292 290 293 291 293 293 294 294 297 301 301 301 308 315 318 320 323 327 329 329 330 329 325 326 326 327 328 329 330 330 330
290 291 291 290 288 290 286 291 288 287 286 283 288 285 288 294 291 291 293 292 293 294 295 298 299 299 303 313 318 322 324 328 329 330 328 328 327 326 328 330 330 329 330 330
287 288 289 289 289 292 288 291 289 287 284 283 281 280 283 288 289 291 292 293 294 296 296 297 295 297 297 300 310 317 322 325 327 328 329 327 327 328 328 325 326 325 327 327
287 289 291 290 292 292 290 289 291 287 284 280 283 281 281 285 289 291 291 294 295 296 296 296 294 294 295 297 303 310 317 320 324 326 328 327 326 325 323 323 324 326 326 326
284 284 287 291 288 289 288 287 281 281 278 279 278 279 289 288 287 290 292 293 294 292 292 293 293 294 295 298 300 302 307 314 318 323 326 326 326 324 324 324 325 325 323 323
283 280 285 287 288 286 286 288 281 274 274 277 279 278 284 288 294 290 289 290 290 292 292 291 292 294 296 298 301 302 301 302 303 309 319 323 325 324 324 324 324 324 323 322
282 281 285 286 288 291 285 285 288 280 269 274 278 280 286 288 287 288 289 289 290 291 293 294 294 296 298 299 302 303 302 302 301 300 300 302 312 321 322 321 321 320 319 316
284 280 284 285 287 286 289 290 283 283 271 270 276 277 281 284 287 289 288 289 290 292 293 294 296 297 298 300 302 303 303 302 303 304 305 304 303 314 318 318 315 314 313 311
284 283 281 284 282 281 284 285 282 286 279 274 271 278 283 286 286 287 287 288 291 292 293 294 295 295 296 299 301 302 302 302 302 304 306 308 308 311 313 312 311 308 307 305
285 283 278 280 283 284 284 286 284 280 276 278 278 279 286 285 285 287 289 290 290 292 293 294 295 295 296 298 299 300 300 300 299 299 301 301 302 304 304 303 302 302 300 299
286 280 272 279 281 283 281 282 287 284 281 278 276 282 284 286 287 288 289 289 290 292 293 294 294 295 295 296 297 297 297 296 295 296 297 297 297 299 298 297 296 295 294 293
292 282 280 278 280 283 281 282 283 286 279 282 281 285 287 289 286 288 288 290 289 292 292 294 293 294 295 295 295 295 294 294 293 294 294 294 294 294 294 293 292 291 291 290
288 279 280 281 282 281 282 282 282 282 286 281 285 284 288 287 287 288 288 289 290 291 292 293 293 293 294 294 293 293 293 292 292 292 291 290 290 290 290 289 289 288 288 288
285 276 280 276 282 282 279 282 283 285 286 285 283 283 287 288 287 288 289 290 290 290 292 293 293 293 293 293 292 292 291 290 290 290 289 287 288 288 287 287 286 286 286 286
285 279 276 275 279 279 275 282 282 285 286 285 282 288 287 285 287 288 290 290 291 291 291 293 294 294 294 293 292 291 290 289 289 288 286 286 286 285 285 285 285 284 284 284
283 278 275 270 272 270 283 283 286 285 286 287 284 284 287 289 290 290 291 291 291 291 292 292 293 293 293 292 291 290 288 287 287 286 286 285 285 284 284 284 283 283 283 283
284 283 273 274 266 277 283 281 282 282 283 287 287 287 287 286 287 289 289 290 293 292 293 293 293 293 291 291 290 288 286 286 286 285 285 284 284 283 283 282 282 281 282 281
284 285 279 266 270 271 281 286 286 288 282 286 287 287 288 287 284 290 289 289 290 291 291 292 291 290 290 288 288 287 286 285 285 285 284 284 284 284 283 282 281 280 281 280
273 274 280 265 274 276 283 283 286 279 282 283 286 289 287 287 289 288 288 287 286 286 287 288 289 288 288 286 287 286 285 285 284 283 282 282 282 282 281 280 280 280 280 279
277 275 275 267 270 276 281 283 285 287 284 285 287 287 286 286 286 285 285 285 285 284 285 285 284 285 284 285 286 284 284 283 282 282 281 281 280 281 280 280 278 278 278 277
277 281 278 283 281 284 282 284 286 287 288 287 288 287 287 285 285 285 284 283 282 282 282 280 282 281 281 282 283 283 280 281 280 281 281 280 279 279 279 278 277 276 276 276
281 282 280 282 282 284 284 284 285 286 287 286 286 286 286 285 285 284 283 283 282 279 280 278 280 280 278 279 281 282 280 280 281 280 278 277 277 275 275 276 277 276 275 275
282 283 278 277 282 283 285 285 286 284 284 285 284 285 285 285 284 284 280 279 281 280 277 277 278 278 277 277 279 279 279 280 279 278 276 275 275 275 274 275 275 275 276 278
280 282 282 280 286 287 287 286 285 284 284 284 284 283 283 284 284 281 278 279 277 277 276 277 277 277 276 277 277 277 278 279 277 275 275 274 274 273 273 273 273 277 278 279
Wind_Speed
5 5 12 7 3 5 8 4 4 2 3 1 5 7 11 6 3 7 8 8 11 13 9 7 10 10 8 8 11 13 12 12 9 6 6 4 7 7 6 6 9 9 7 7
4 13 6 9 5 5 4 4 2 4 1 3 4 9 11 6 7 8 10 9 11 9 7 7 9 9 12 14 12 11 13 12 11 8 8 4 7 5 6 7 8 8 9 9
8 2 9 7 5 7 3 5 4 3 2 1 4 11 9 7 5 7 7 8 6 13 14 8 10 13 12 14 15 15 14 13 13 13 6 3 3 2 4 3 4 6 8 7
5 4 11 9 6 7 6 5 5 4 3 5 1 9 7 11 14 7 10 8 12 12 11 11 12 10 15 16 14 14 14 14 13 14 11 13 11 11 8 8 8 8 9 9
5 8 8 10 9 9 6 7 6 4 3 0 1 4 7 6 14 12 13 12 14 14 14 15 13 13 10 8 12 13 13 13 13 14 14 11 11 9 5 4 6 6 6 7
4 1 7 9 6 7 11 8 6 4 3 5 7 7 7 8 11 7 7 12 13 14 12 12 5 7 8 6 7 9 12 12 12 13 14 14 13 9 7 7 7 5 6 5
3 3 2 6 7 1 4 8 2 1 1 9 4 6 18 8 6 9 12 12 11 8 8 7 9 9 7 7 6 7 10 11 10 12 12 13 12 10 11 9 7 6 4 3
12 6 8 4 7 8 6 6 6 8 6 3 1 11 9 11 12 7 7 7 5 7 5 7 7 7 8 7 6 5 6 6 7 7 9 7 9 7 7 7 6 5 4 5
8 4 1 4 6 11 6 11 8 4 3 3 6 9 11 9 11 8 10 6 11 8 6 6 5 6 6 6 7 7 6 5 6 6 5 5 4 6 7 6 5 4 4 4
7 7 1 3 5 2 10 10 5 2 3 4 5 6 8 5 8 11 8 7 6 5 4 4 5 5 3 4 4 5 5 5 4 5 4 4 6 5 5 5 6 7 6 5
7 6 0 6 7 9 6 7 3 6 6 5 1 8 9 9 5 6 8 8 8 8 7 6 5 5 5 4 4 4 4 6 5 3 3 4 4 5 5 5 6 7 8 8
5 7 5 6 2 4 6 9 9 6 2 2 4 10 5 3 2 4 9 9 7 5 7 6 6 7 7 5 5 5 4 5 5 4 4 4 4 6 7 7 7 7 8 7
9 1 5 4 5 2 5 4 14 4 3 7 6 12 2 4 4 6 7 8 5 1 3 6 5 6 7 6 4 4 4 4 4 5 5 6 5 7 8 8 8 7 8 8
11 4 9 10 4 9 7 6 7 16 5 12 16 24 11 13 3 6 6 7 4 6 7 5 5 6 6 6 6 5 5 5 5 5 5 7 5 6 8 8 8 8 7 10
5 7 4 3 4 3 5 10 10 14 22 14 28 16 14 8 8 7 6 4 5 7 8 9 8 7 6 7 7 6 5 5 5 5 5 5 6 7 8 8 8 7 8 8
2 1 5 1 3 3 1 9 18 22 22 16 6 16 5 8 6 7 8 7 10 8 8 9 9 9 10 10 9 7 6 6 5 6 6 6 6 7 8 8 9 8 9 8
13 9 6 9 1 5 6 19 15 17 18 18 17 23 8 5 8 10 9 9 11 9 8 10 13 12 10 11 11 11 9 6 6 7 7 6 7 8 7 8 9 9 8 7
11 7 5 4 3 6 10 2 13 20 14 17 11 2 8 10 11 8 9 9 9 9 10 9 8 7 7 6 8 7 9 8 8 8 8 8 8 8 8 8 8 7 7 8
4 9 4 8 5 6 14 7 9 9 11 16 13 8 10 4 1 12 9 10 13 7 7 6 7 6 8 9 8 10 8 8 8 9 9 9 9 10 9 9 8 6 7 5
5 5 6 4 8 14 4 10 9 5 22 11 12 14 15 8 4 16 4 3 3 4 2 3 5 4 8 8 10 11 10 10 10 9 8 8 8 9 9 8 8 3 4 5
4 2 17 2 7 10 7 5 6 10 10 3 6 10 7 9 6 1 3 5 3 3 5 3 3 5 5 8 10 10 9 11 7 7 8 7 6 8 7 7 3 6 7 7
9 9 6 4 3 20 6 4 18 8 1 4 5 5 7 4 5 4 4 4 5 6 6 5 4 5 4 5 8 8 9 6 8 9 9 9 8 7 7 8 6 6 8 7
2 8 9 14 8 3 6 1 3 4 5 5 4 4 5 6 4 3 3 4 5 5 4 3 5 5 4 4 4 6 5 8 9 9 9 8 7 6 6 8 7 5 5 5
4 3 4 5 5 5 8 2 3 4 4 4 4 6 6 7 7 6 5 4 3 3 4 2 4 4 3 3 5 5 7 7 9 9 8 7 7 6 4 4 5 6 6 6
6 9 7 2 3 1 4 8 6 4 5 5 3 4 8 9 6 5 4 3 3 3 2 2 3 3 2 2 4 4 7 8 8 7 7 6 5 6 5 3 4 4 2 4
6 9 7 7 9 5 5 8 9 9 7 7 7 5 5 5 8 6 4 2 2 2 2 3 3 3 3 3 4 4 5 7 9 8 7 7 6 5 5 5 4 4 6 9
Wind_Direction
171 137 195 176 144 114 127 115 141 234 5 143 233 249 251 215 222 231 241 230 234 231 226 198 191 194 199 204 198 192 190 193 178 178 180 197 213 205 203 199 207 200 192 190
105 217 160 132 134 100 103 120 220 298 152 173 318 265 256 240 232 210 224 218 234 243 218 208 195 191 195 205 208 201 202 192 193 193 195 184 190 211 207 199 206 204 196 188
167 191 141 131 135 131 100 138 157 221 329 259 306 268 243 258 230 232 224 240 207 227 240 218 208 204 201 204 201 205 203 198 195 192 174 134 138 143 188 192 204 212 205 206
175 126 147 145 163 134 161 173 128 148 135 235 77 282 259 239 237 211 234 217 240 218 234 243 212 214 206 209 202 201 198 198 199 187 191 197 204 209 209 201 204 201 198 208
182 140 128 172 169 148 185 148 127 112 122 99 280 305 259 235 235 238 226 219 228 237 214 234 223 221 224 209 199 200 198 197 195 192 197 202 206 209 188 180 191 199 195 200
156 12 149 164 155 152 146 103 66 73 80 265 200 191 243 210 219 229 223 230 223 226 227 234 220 204 217 206 206 191 190 198 194 194 197 202 208 197 186 184 201 211 200 196
128 164 151 123 98 104 151 141 55 245 215 233 297 217 255 262 254 218 220 226 228 214 217 227 216 204 207 202 212 199 191 194 185 197 198 202 207 200 203 198 197 199 180 176
166 196 162 183 155 163 178 165 160 188 197 239 91 231 253 245 267 251 256 249 248 247 247 242 240 219 183 181 196 200 182 178 177 191 203 197 197 195 204 198 197 200 187 173
136 200 96 148 150 139 188 209 152 81 12 69 216 285 294 259 273 261 247 246 259 249 237 232 219 208 175 165 176 184 185 178 179 190 190 208 229 180 190 185 184 167 144 134
186 120 297 162 111 64 182 144 123 88 221 250 264 269 243 326 258 262 282 284 313 274 243 232 168 152 151 143 156 167 163 163 161 171 185 194 206 213 203 164 155 140 126 118
136 101 205 136 209 155 125 181 184 145 177 180 290 260 217 248 359 315 288 279 253 226 212 193 171 141 143 142 159 159 138 135 139 146 166 169 181 167 143 135 129 124 122 119
191 119 142 201 239 186 187 172 177 171 217 226 132 256 206 190 274 282 277 284 274 217 187 177 169 152 151 169 162 154 148 134 144 145 139 123 125 117 119 118 115 117 113 107
176 119 89 22 347 353 220 177 203 124 72 206 135 261 283 151 235 263 290 308 292 246 156 171 171 174 158 159 171 152 135 138 129 128 129 115 118 125 119 115 108 101 112 120
126 133 163 180 183 135 188 195 182 189 181 216 225 237 249 273 247 317 302 291 255 212 201 204 183 199 161 159 164 168 154 155 150 138 143 124 125 114 115 114 115 107 125 116
130 160 110 43 54 108 154 173 172 192 221 189 242 245 236 243 289 262 255 262 219 215 206 205 201 197 185 174 163 168 159 150 142 136 123 125 114 108 108 107 106 109 106 107
84 181 117 17 16 101 162 195 195 209 225 239 244 262 178 228 238 257 233 239 249 233 219 211 205 193 194 186 172 160 160 158 145 140 132 127 124 122 121 120 121 118 113 121
161 137 118 229 189 102 322 216 197 217 217 218 231 247 180 213 231 236 247 231 244 250 222 212 207 200 188 187 173 172 161 143 147 142 140 140 136 127 131 128 121 122 125 120
165 113 99 157 79 193 254 137 204 205 223 220 257 162 188 216 230 244 220 221 245 234 242 224 194 181 173 177 166 139 143 154 155 156 153 149 144 138 133 126 127 127 132 134
19 149 111 146 195 287 267 176 144 165 251 211 227 239 239 243 21 274 231 208 234 228 239 228 179 166 151 174 159 142 146 152 161 166 165 158 150 145 147 145 146 131 132 128
63 158 136 125 170 215 354 194 160 107 281 172 184 218 226 140 193 250 53 24 129 76 58 188 169 135 151 160 151 151 160 166 178 170 162 152 150 151 154 146 136 113 123 122
90 67 207 150 227 277 227 131 128 163 263 178 187 221 175 191 218 31 48 42 29 53 30 20 141 168 159 142 146 159 161 185 156 133 134 141 142 141 138 128 122 142 138 131
148 151 190 74 189 257 157 43 180 202 279 164 191 192 207 160 140 91 71 63 44 37 34 30 88 88 107 133 149 153 172 137 135 138 143 148 148 144 147 142 133 134 140 139
220 188 171 189 201 217 211 102 160 169 157 201 180 159 155 147 142 113 108 60 48 43 41 34 94 93 58 77 104 139 137 142 141 144 150 143 127 133 143 148 147 136 133 141
238 168 161 104 210 209 203 174 216 179 160 155 145 145 140 129 136 114 107 89 78 54 37 25 88 97 95 95 111 128 147 139 147 143 138 129 140 131 114 110 140 149 167 170
182 132 149 279 270 162 235 214 167 139 125 129 129 120 125 121 116 122 121 122 110 109 96 86 101 100 112 72 110 128 141 142 137 134 133 140 138 151 146 147 167 175 189 182
192 166 163 205 193 153 205 162 160 151 166 164 134 99 66 107 122 119 119 131 120 90 64 75 68 96 123 128 128 131 147 154 147 148 159 166 158 155 152 155 147 211 208 204